www.pogodaiklimat.ru

АРХИВ ПОГОДЫ в Ростове-на-Дону

Время (UTC), дата Ветер
(напр.,м/с)
 
Видим.   Явления Облачность Т
(С)
Тd
(С)
f
(%)
Тe
(С)
Тes
(С)
Комфортность P
(гПа)
Po
(гПа)
Тmin
(С)
Tmax
(С)
R
(мм)
S
(см)
21 25.08 В 3 8000 м 3/0
[Ac trans]
+15.1 +1.2 39 +15 +15 прохладно 1019.4 1010.5
00 26.08 СВ 4 8000 м 1/0
[Ac trans]
+13.0 +1.8 46 +12 +12 прохладно 1019.6 1010.6
03 26.08 СВ 3 10 км 4/0
[Ci fib]
+12.6 +1.9 48 +11 +12 очень
холодно
1019.9 1010.9 +12.3
06 26.08 В 3 10 км 5/0
[Ci fib]
+21.5 +1.1 26 +21 +26 комфорт 1020.2 1011.5
09 26.08 В 5 10 км 3/0
[Ci fib]
+25.0 -0.1 19 +23 +30 комфорт 1019.5 1010.9
12 26.08 В 4
{11}
10 км 4/0
[Ci fib]
+26.7 -1.0 16 +24 +30 комфорт 1018.7 1010.1
15 26.08 В 3
{10}
10 км ясно +26.1 +1.6 20 +25 +25 комфорт 1018.3 1009.7 +27.3
18 26.08 В 2
{10}
8000 м ясно +20.8 +1.8 28 +22 +22 комфорт 1018.9 1010.1
21 26.08 З 1 8000 м ясно +16.0 +3.8 44 +17 +17 по сезону 1019.2 1010.3
00 27.08 штиль 0 8000 м ясно +13.5 +4.2 53 +13 +13 прохладно 1019.1 1010.1
03 27.08 штиль 0 10 км 1/0
[Ac trans]
+12.7 +4.3 57 +12 +13 холодно 1019.4 1010.4 +11.6
06 27.08 В 1 10 км 1/0
[Ac trans]
+23.5 +5.6 31 +23 +31 комфорт 1019.5 1010.8
09 27.08 ЮЗ 2 10 км 3/0
[Ac trans]
+28.5 +0.7 17 +26 +37 жарко 1019.0 1010.5
12 27.08 Ю 3 10 км 8/0
[Ci fib]
+29.6 +1.5 16 +27 +33 жарко 1017.7 1009.2
15 27.08 З 2 10 км 6/0
[Ac trans Ci fib]
+27.4 +2.1 19 +26 +26 жарко 1017.6 1009.0 +29.7
18 27.08 СЗ 2 8000 м 9/0
[Ac trans Ci fib]
+21.7 +6.0 36 +22 +22 комфорт 1018.5 1009.8
21 27.08 С 2 8000 м 9/0
[Ac trans Ci fib]
+22.0 +2.7 28 +22 +22 комфорт 1018.4 1009.7
00 28.08 штиль 0 8000 м 5/0
[Ac trans Ci fib]
+16.3 +7.0 54 +16 +16 по сезону 1018.5 1009.6
03 28.08 СЗ 2 10 км 8/0
[Ac trans Ci fib]
+19.4 +5.7 41 +21 +21 комфорт 1019.3 1010.5 +15.3
06 28.08 С 3 10 км 8/1 1000 м
[Cb calv Ac trans Ci]
+23.8 +6.3 32 +24 +27 комфорт 1019.5 1010.8
09 28.08 ЮВ 1 10 км 8/0
[Ac trans Ci fib]
+28.8 +7.4 26 +28 +38 жарко 1019.6 1011.1
12 28.08 З 1 10 км 5/3 1000 м
[Cu hum Ac trans Ci fib]
+30.8 +3.0 17 +28 +34 жарко 1018.8 1010.3
15 28.08 С 1 10 км ясно +29.5 +3.8 19 +27 +28 жарко 1018.6 1010.1 +31.0
18 28.08 С 2 8000 м ясно +20.4 +7.8 44 +22 +22 комфорт 1019.9 1011.1
21 28.08 С 2 8000 м ясно +19.3 +5.9 41 +20 +20 тепло 1020.1 1011.3
00 29.08 С 1 8000 м ясно +17.7 +7.1 50 +19 +19 тепло 1020.3 1011.4
03 29.08 штиль 0 10 км 3/0
[Ac trans]
+14.8 +7.7 62 +15 +15 прохладно 1020.4 1011.5 +14.5
06 29.08 СЗ 1 10 км 4/0
[Ci fib]
+25.1 +11.1 41 +26 +33 жарко 1020.3 1011.7
09 29.08 ЮЗ 3 10 км 4/0
[Ac trans Ci fib]
+30.9 +3.8 18 +29 +37 жарко 1019.6 1011.1
12 29.08 З 4 10 км 6/0
[Ac trans Ci fib]
+30.6 +2.1 16 +28 +32 жарко 1018.0 1009.5
15 29.08 З 3 10 км 4/0
[Ac trans Ci fib]
+29.9 +3.5 19 +28 +28 жарко 1016.9 1008.4 +31.9
18 29.08 З 3 8000 м 1/0
[Ci fib]
+23.9 +8.3 37 +24 +24 комфорт 1017.0 1008.4
21 29.08 З 4 8000 м ясно +23.7 +9.9 42 +25 +25 комфорт 1016.0 1007.4
00 30.08 З 4 8000 м 8/0
[Ac trans]
+23.6 +12.7 50 +26 +26 жарко 1015.2 1006.6
03 30.08 С 2 10 км 6/0
[Ac trans]
+21.3 +11.3 53 +23 +23 комфорт 1016.0 1007.3 +21.3
06 30.08 С 6
{11}
10 км 8/0
[Ac trans]
+22.4 +6.5 36 +23 +24 комфорт 1017.6 1008.9
09 30.08 С 6 10 км 1/0
[Ac trans]
+25.9 +4.9 26 +25 +30 комфорт 1017.7 1009.1
12 30.08 СЗ 5
{10}
10 км ясно +27.2 +3.7 22 +26 +30 жарко 1016.9 1008.4
15 30.08 СЗ 4 10 км 1/0
[Ci fib]
+26.4 +3.9 23 +25 +26 комфорт 1017.1 1008.5 +27.5
18 30.08 С 3 8000 м 4/0
[Ci fib]
+21.6 +3.8 31 +22 +22 комфорт 1018.7 1010.0
21 30.08 С 2 8000 м ясно +18.7 +4.3 39 +20 +20 тепло 1019.1 1010.3
00 31.08 СЗ 4 8000 м ясно +17.0 +4.5 43 +17 +17 по сезону 1019.1 1010.2
03 31.08 СЗ 2 10 км 1/0
[Ci fib]
+15.2 +5.1 51 +15 +15 прохладно 1018.9 1010.0 +15.1
06 31.08 СЗ 2 10 км ясно +21.8 +5.8 35 +22 +28 комфорт 1019.0 1010.3
09 31.08 З 5 10 км ясно +25.2 +4.0 25 +24 +31 комфорт 1017.9 1009.3
12 31.08 СЗ 4 10 км 1/0
[Ac trans]
+26.7 +4.5 24 +26 +31 жарко 1016.9 1008.3
15 31.08 З 5
{10}
10 км ясно +24.5 +8.3 36 +25 +25 комфорт 1016.5 1007.9 +27.1
18 31.08 З 4
{10}
8000 м 3/0
[Ac trans Ci fib]
+21.0 +14.5 66 +24 +24 комфорт 1017.0 1008.3
21 31.08 СЗ 2 8000 м 4/0
[Ac trans Ci fib]
+18.8 +13.6 72 +20 +20 тепло 1016.9 1008.1
00 1.09 СЗ 2 8000 м 9/0
[Ac trans]
+18.6 +12.4 67 +20 +20 тепло 1016.6 1007.8
03 1.09 С 1 10 км 8/0
[Ac trans]
+17.8 +10.0 60 +19 +19 тепло 1016.8 1008.0 +17.6
06 1.09 СЗ 1 10 км 4/0
[Ac trans Ci fib]
+25.3 +6.4 30 +25 +31 комфорт 1016.7 1008.1
09 1.09 З 3 10 км 5/1 1000 м
[Cu hum Ci fib]
+27.1 +6.1 26 +26 +35 жарко 1016.0 1007.5
12 1.09 СЗ 2 10 км 5/1 1000 м
[Cu hum Ci fib]
+29.0 +5.1 22 +28 +34 жарко 1014.8 1006.3
15 1.09 З 4 10 км 8/0
[Ac trans Ci fib]
+27.7 +6.8 27 +27 +27 жарко 1014.8 1006.3 +29.6
18 1.09 З 3 8000 м 4/0
[Ac trans]
+23.1 +16.6 67 +28 +28 душно 1015.3 1006.7

 

Местоположение метеостанции Ростов-на-Дону (Ростовская область, Россия): широта 47.27 долгота 39.82 высота над уровнем моря 75 м.

В архиве по умолчанию представлена погода в Ростове-на-Дону за последнюю неделю. Архивные данные за месяц целиком и за предыдущие месяцы, начиная с января 2011 года, Вы можете получить, выбрав интересующий диапазон дат из раскрывающегося списка и нажав кнопку "Ввод!".

Внимание! Время в таблицах - всемирное. Для получения местного времени необходимо прибавить поправку, которая в Ростове-на-Дону равна 3 ч.

Ветер - указаны скорость ветра в м/с - средняя за 10 мин, порывы в срок и между сроками (в фигурных скобках) и направление, откуда дует ветер: С - северный, СВ - северо-восточный, В - восточный, ЮВ - юго-восточный, Ю - южный, ЮЗ - юго-западный, З - западный, СЗ - северо-западный.
Видимость - горизонтальная дальность видимости в метрах или километрах. При видимости от 1 до 10 км при отсутствии осадков обычно наблюдается дымка, при ухудшении видимости до 1 км и менее - туман. В сухую погоду видимость может ухудшаться дымом, пылью или мглою.
Явления - указаны атмосферные явления, наблюдавшиеся в срок или в последний час перед сроком; фигурными скобками обозначены явления, наблюдавшиеся между сроками (за 1-3 часа до срока); квадратными скобками обозначены град или гололедные отложения с указанием их диаметра в мм.
Облачность - указаны через наклонную черту общая и нижняя облачность в баллах и высота нижней границы облаков в метрах; квадратными скобками обозначены формы облаков: Ci - перистые, Cs - перисто-слоистые, Cc - перисто-кучевые, Ac - высококучевые, As - высокослоистые, Sc - слоисто-кучевые, Ns - слоисто-дождевые, Cu - кучевые, Cb - кучево-дождевые. Подробнее классификацию облаков см. в Атласе облаков (PDF).
T - Температура воздуха - температура, измеренная на высоте 2 м над землей.
Td - Температура точки росы - температура, при понижении до которой содержащийся в воздухе водяной пар достигнет насыщения.
f - Относительная влажность воздуха - влажноcть воздуха, измеренная на высоте 2 м над землей.
Te - Эффективная температура - температура, которую ощущает одетый по сезону человек в тени. Характеристика душности погоды. При расчете учитывается влияние влажности воздуха и скорости ветра на теплоощущения человека.
Tes - Эффективная температура на солнце - температура, которую ощущает человек, с поправкой на солнечный нагрев. Характеристика знойности погоды. Зависит от высоты солнца над горизонтом, облачности и скорости ветра. Ночью, в пасмурную погоду, а также при ветре 12 м/с и более поправка равна нулю.
P - Атмосферное давление - приведенное к уровню моря атмосферное давление.
Po - Атмосферное давление - измеренное на уровне метеостанции атмосферное давление.
Tmin - Минимальная температура - минимум температуры воздуха на высоте 2 м над землей.
Tmax - Максимальная температура - максимум температуры воздуха на высоте 2 м над землей.
R - Количество осадков - Количество выпавших осадков, мм. При наведении курсора мыши на число - период времени, за который выпало указанное количество осадков.
S - Снежный покров - Высота снежного покрова, см. При наведении курсора мыши на число - состояние снежного покрова и степень покрытия местности в баллах.